Regional Weather Roundup
Issued by NWS State College, PA

Home | Current Version | Previous Version | Text Only | Print | Product List | Glossary Off
Versions: 1 2 3 4 5 6 7 8 9 10 11 12 13 14 15 16 17 18 19 20 21 22 23 24 25 26 27 28 29 30 31 32 33 34 35 36 37 38 39 40 41 42 43 44 45 46 47 48 49 50

817
ASUS41 KCTP 252110
RWRCTP

REGIONAL WEATHER ROUNDUP
NATIONAL WEATHER SERVICE STATE COLLEGE PA
500 PM EDT SUN JUN 25 2017

Note: "fair" indicates few or no clouds below 12,000 feet with no
significant weather and/or obstructions to visibility.

* = STATION THAT DOES NOT REPORT PRECIPITATION /E.G. RAIN...SNOW...ETC/
    THUNDER OR FOG.

PAZ002>004-007>009-013>016-020>023-029>032-252200-
WESTERN PENNSYLVANIA

CITY           SKY/WX    TMP DP  RH WIND       PRES   REMARKS
ERIE           SUNNY     69  47  45 W18G28    30.02R
MEADVILLE      MOSUNNY   68  50  52 W16G28    30.03R
FRANKLIN*      PTSUNNY   70  45  40 W17G23    30.02S
NEW CASTLE     FAIR      73  47  39 W15G22    30.03R
BEAVER COUNTY  NOT AVBL
BUTLER*        PTSUNNY   72  48  43 W13G26    30.03S
PITTSBURGH INT LGT RAIN  69  54  58 W14G23    30.03F
PITTSBURGH     MOSUNNY   74  45  35 W14G25    30.03F
INDIANA*       MOSUNNY   72  46  40 W16G26    30.05S
LATROBE        MOSUNNY   73  46  38 SW12G23   30.05F
WASHINGTON CO* CLOUDY    72  46  40 SW12G20   30.07S
$$

PAZ004>006-010>012-017>019-024>028-033>037-041-042-045-046-049>053-252200-
CENTRAL PENNSYLVANIA

CITY           SKY/WX    TMP DP  RH WIND       PRES   REMARKS
BRADFORD       PTSUNNY   67  44  43 W12G22    30.00R
DUBOIS         CLOUDY    68  45  43 W14       30.01S
CLEARFIELD     MOSUNNY   72  46  39 W16G22    30.01S
JOHNSTOWN      MOSUNNY   70  43  37 W21G29    30.06F
ALTOONA        MOSUNNY   74  48  39 W15G23    30.04S
STATE COLLEGE  MOSUNNY   75  48  38 W18G25    30.00S
WILLIAMSPORT   MOSUNNY   80  50  34 SW15      29.93S
SELINSGROVE    MOSUNNY   80  50  34 VRB6      29.96
FT INDIANTOWN  SUNNY     81  53  37 SW12      29.95F
CAPITAL CITY   PTSUNNY   80  50  34 W12G21    29.95F
HARRISBURG     PTSUNNY   81  53  37 W12       29.94F
YORK           MOSUNNY   80  53  39 W9G18     29.96
$$

PAZ038>040-043-044-047-048-054-055-060>062-067>071-252200-
EASTERN PENNSYLVANIA

CITY           SKY/WX    TMP DP  RH WIND       PRES   REMARKS
SCRANTON       MOSUNNY   79  48  33 W14G25    29.94S
MOUNT POCONO   MOSUNNY   72  50  45 W14       29.99
ALLENTOWN      MOSUNNY   82  55  39 W9        29.93
QUAKERTOWN*    CLEAR     82  55  39 W7        29.95S
READING        MOSUNNY   81  54  39 W12       29.93F
LANCASTER      MOSUNNY   80  54  40 W13G22    29.95
COATESVILLE    PTCLDY    79  57  47 VRB6      29.98S
POTTSTOWN      MOSUNNY   79  54  41 VRB6      29.96S
BLUE BELL      SUNNY     81  57  44 W7G16     29.95S
DOYLESTOWN     MOSUNNY   82  55  39 W8        29.93F
WILLOW GROVE   NOT AVBL
NORTH PHILA    MOSUNNY   83  57  41 W12       29.94S
PHILADELPHIA   PTSUNNY   85  55  35 W12G21    29.94S
$$




USA.gov is the U.S. government's official web portal to all federal, state and local government web resources and services.